Погода в Телегине

Россия / Ивановская область     56°47′43″N   40°46′30″E
темп.,
°C
ветер,
м/с
пор.,
м/с
влажн.,
%
обл.,
%
осадки,
мм/ч
давл.,
гПа
погр.,
м
29 июня, ср
ср2900:00+10ссв26710 0.0 102395
03:00+8св22750 0.0 102430
06:00+12св23645 0.0 1024158
09:00+17св24425 0.0 10241226
12:00+20ссв33343 0.0 10231760
15:00+21ссв33353 0.0 10221826
18:00+20ссв34410 0.0 10201520
21:00+14сз2270100 0.0 102024
30 июня, чт
чт3000:00+12сз2368100 0.0 102051
03:00+10сз25845 0.0 101979
06:00+13сз37683 0.0 1019195
09:00+19ссз464368 0.0 1017895
12:00+22ссз593665 0.0 10161907
15:00+23с68365 0.0 10152395
18:00+22с410405 0.0 10152520
21:00+15с396810 0.0 1016199
1 июля, пт
пт100:00+12всв310690 0.0 1019281
03:00+8ссв27770 0.0 1020137
06:00+11св36664 0.0 1021231
09:00+16св47404 0.0 10221321
12:00+19ссв47352 0.0 10211719
15:00+20св46335 0.0 10211929
18:00+20ссв35395 0.0 10211749
21:00+14ссз226515 0.0 102126
2 июля, сб
сб200:00+11ссз22695 0.0 102225
03:00+10сз23693 0.0 102156
06:00+14зсз37655 0.0 1021198
09:00+20зсз474578 0.0 1020673
12:00+23сз3644100 0.1 1018989
15:00+27ссз574387 0.1 10162249
18:00+22ссз1478100 0.4 1015130
21:00+20сз2285100 0.6 101533
3 июля, вс
вс300:00+17ссв12940 0.0 101511
03:00+15с22891 0.0 101523
06:00+18с24790 0.0 1015116
09:00+23ссв34550 0.0 1015855
12:00+26ссв35410 0.0 10151831
15:00+27ссв45371 0.0 10152006
18:00+25с34460 0.0 10141876
21:00+19с22720 0.0 101511